Hourly Data Report for April 04, 2003

SHERBROOKE A
QUEBEC

45°26'00.000" N
71°41'00.000" W
241.40 m
7028124
71610
YSC

Download Data

Hourly Data (April 2003)
Hourly Data Report for April 4, 2003
TIME
LST
Temp Definition
°C
Dew Point Definition
°C
Rel Hum Definition
%
Precip. Amount Definition
mm

Wind Dir Definition
10's deg

Wind Spd Definition
km/h
Visibility Definition
km
Stn Press Definition
kPa
Hmdx Definition


Wind Chill Definition


Weather Definition


00:00 -7.3 -13.1 63   5 6 15.0 99.10   -10  
01:00 -6.4 -15.4 49   3 9 15.0 99.13   -11  
02:00 -6.7 -15.3 50   3 13 15.0 99.17   -12  
03:00 -7.6 -16.1 51   3 11 15.0 99.15   -13  
04:00 -8.1 -16.1 53   1 13 15.0 99.27   -14  
05:00 -8.5 -16.2 54   3 17 15.0 99.25   -15  
06:00 -8.7 -15.7 57   3 13 15.0 99.29   -15  
07:00 -8.6 -15.7 56   1 11 15.0 99.28   -14  
08:00 -8.5 -15.6 56   4 13 24.1 99.31   -14 Cloudy
09:00 -7.6 -15.2 54   3 9 24.1 99.37   -12 Cloudy
10:00 -7.1 -15.7 50   1 15 24.1 99.33   -13 Cloudy
11:00 -6.5 -17.2 42   3 13 24.1 99.27   -12 Cloudy
12:00 -5.3 -17.0 39   6 9 24.1 99.27   -9 Cloudy
13:00 -4.8 -17.0 38   4 9 24.1 99.27   -9 Cloudy
14:00 -4.3 -16.4 38   2 13 24.1 99.20   -9 Mostly Cloudy
15:00 -3.8 -16.4 37   1 13 24.1 99.18   -9 Cloudy
16:00 -3.7 -17.2 34   5 6 24.1 99.18   -6 Cloudy
17:00 -3.6 -15.8 38   2 9 24.1 99.18   -7 Cloudy
18:00 -3.6 -15.7 39   5 6 15.0 99.12   -6  
19:00 -3.6 -15.4 39   2 6 15.0 99.19   -6  
20:00 -3.7 -15.2 40   4 9 15.0 99.24   -7  
21:00 -4.5 -14.8 44   5 9 15.0 99.21   -8  
22:00 -5.0 -15.3 44   5 13 15.0 99.16   -10  
23:00 -5.2 -14.8 47   5 9 15.0 99.16   -9  

Notes on Data Quality.

Legend

  • E = Estimated
  • M = Missing
  • NA = Not Available*
  • [empty] = Indicates an unobserved value
Date modified: